Gwinn, MI

11:10 AM EDT on September 26, 2017 (GMT -0400)
Sawyer International

Weather History for KSAW - February, 2014

Change the Weather History Date:

Friday, February 28, 2014

  Actual Average (KESC) Record (KESC)
Temperature  
Mean Temperature -8 °F -  
Max Temperature 10 °F 30 °F 44 °F (1998)
Min Temperature -27 °F 12 °F -25 °F (2014)
Degree Days  
Heating Degree Days 74    
Moisture  
Dew Point -16 °F    
Average Humidity 72    
Maximum Humidity 85    
Minimum Humidity 43    
Precipitation  
Precipitation 0.00 in - - ()
Sea Level Pressure  
Sea Level Pressure 30.00 in    
Wind  
Wind Speed 3 mph (SSW)    
Max Wind Speed 20 mph    
Max Gust Speed 29 mph    
Visibility 8 miles    
Events Fog , Snow    
Averages and records for this station are not official NWS values.
T = Trace of Precipitation, MM = Missing Value Source: NWS Daily Summary

Daily Weather History Graph

Daily Weather History Graph

Search for Another Location

Airport or City:

Trip Planner

Search our weather history database for the weather conditions in past years. The results will help you decide how hot, cold, wet, or windy it might be!

Date:

Astronomy

Feb. 28, 2014 Rise Set
Actual Time 7:30 AM EST 6:34 PM EST
Civil Twilight 7:00 AM EST 7:04 PM EST
Nautical Twilight 6:25 AM EST 7:39 PM EST
Astronomical Twilight 5:50 AM EST 8:14 PM EST
Moon 6:45 AM EST (2/28) 6:11 PM EST (2/28)
Length of Visible Light 12h 04m
Length of Day
11h 03m
Waning Crescent, 1% of the Moon is Illuminated
Feb 28
Waning Crescent
Mar 1
New
Mar 8
First Quarter
Mar 16
Full
Mar 23
Last Quarter

Hourly Weather History & Observations

Time (EST) Temp. Windchill Dew Point Humidity Pressure Visibility Wind Dir Wind Speed Gust Speed Precip Events Conditions
12:17 AM -23.1 °F - -29.7 °F 71% 30.08 in 10.0 mi Calm Calm - N/A   Clear
12:37 AM -22.7 °F - -29.2 °F 72% 30.07 in 10.0 mi Calm Calm - N/A   Clear
12:56 AM -24.2 °F - -30.6 °F 72% 30.08 in 10.0 mi Calm Calm - N/A   Clear
1:17 AM -24.2 °F - -30.8 °F 71% 30.08 in 10.0 mi Calm Calm - N/A   Clear
1:36 AM -25.6 °F - -32.8 °F 69% 30.08 in 10.0 mi Calm Calm - N/A   Clear
1:56 AM -25.4 °F - -31.9 °F 71% 30.08 in 10.0 mi Calm Calm - N/A   Clear
2:17 AM -25.4 °F - -32.4 °F 69% 30.08 in 10.0 mi Calm Calm - N/A   Clear
2:36 AM -26.5 °F - -33.7 °F 69% 30.08 in 10.0 mi Calm Calm - N/A   Clear
2:57 AM -24.0 °F - -30.8 °F 70% 30.08 in 10.0 mi Calm Calm - N/A   Clear
3:17 AM -25.8 °F - -32.8 °F 69% 30.07 in 10.0 mi Calm Calm - N/A   Clear
3:36 AM -24.9 °F - -31.7 °F 70% 30.07 in 10.0 mi Calm Calm - N/A   Scattered Clouds
3:57 AM -24.5 °F - -31.2 °F 71% 30.06 in 10.0 mi Calm Calm - N/A   Scattered Clouds
4:16 AM -24.0 °F - -30.8 °F 70% 30.06 in 10.0 mi Calm Calm - N/A   Scattered Clouds
4:36 AM -25.8 °F - -32.6 °F 70% 30.06 in 10.0 mi Calm Calm - N/A   Clear
4:57 AM -26.0 °F - -32.6 °F 71% 30.06 in 10.0 mi Calm Calm - N/A   Scattered Clouds
5:16 AM -26.1 °F - -32.8 °F 71% 30.06 in 10.0 mi Calm Calm - N/A   Scattered Clouds
5:37 AM -26.9 °F - -34.4 °F 67% 30.05 in 10.0 mi Calm Calm - N/A   Scattered Clouds
5:56 AM -27.6 °F - -35.3 °F 67% 30.06 in 10.0 mi Calm Calm - N/A   Scattered Clouds
6:50 AM -25.6 °F - -32.8 °F 69% 30.07 in 10.0 mi Calm Calm - N/A   Scattered Clouds
7:50 AM -22.0 °F -33.0 °F -27.4 °F 76% 30.05 in 10.0 mi South 3.5 mph - N/A   Mostly Cloudy
8:10 AM -18.4 °F -31.4 °F -23.8 °F 76% 30.05 in 1.0 mi SSW 4.6 mph - N/A   Haze
8:50 AM -13.0 °F -25.1 °F -16.6 °F 84% 30.05 in 5.0 mi South 4.6 mph - N/A Fog Light Freezing Fog
9:50 AM -9.4 °F -25.6 °F -14.8 °F 77% 30.05 in 10.0 mi SSW 8.1 mph - N/A   Overcast
10:50 AM -2.2 °F -19.9 °F -13.0 °F 60% 30.06 in 10.0 mi SSW 11.5 mph - N/A   Overcast
11:50 AM 3.2 °F -13.9 °F -14.8 °F 43% 30.03 in 10.0 mi SSW 12.7 mph - N/A   Overcast
12:46 PM 5.0 °F -14.2 °F -13.0 °F 43% 30.00 in 10.0 mi South 17.3 mph - N/A   Overcast
1:45 PM 6.8 °F -12.9 °F -9.4 °F 48% 29.97 in 10.0 mi SSW 19.6 mph 25.3 mph N/A   Overcast
2:46 PM 10.4 °F -8.2 °F -4.0 °F 52% 29.94 in 10.0 mi SSW 19.6 mph 28.8 mph N/A   Overcast
3:45 PM 10.4 °F -6.6 °F 3.2 °F 73% 29.93 in 2.0 mi South 16.1 mph 19.6 mph N/A Snow Light Snow
4:13 PM 8.6 °F -8.3 °F 5.0 °F 85% 29.92 in 1.0 mi South 15.0 mph 19.6 mph N/A Snow Light Snow
4:55 PM 8.6 °F -7.7 °F 5.0 °F 85% 29.90 in 1.5 mi South 13.8 mph 19.6 mph N/A Snow Light Snow
5:50 PM 8.6 °F -4.7 °F 5.0 °F 85% 29.88 in 1.2 mi South 9.2 mph - N/A Snow Light Snow
6:52 PM 8.6 °F -4.7 °F 5.0 °F 85% 29.88 in 5.0 mi SSW 9.2 mph - N/A Snow Light Snow
7:50 PM 8.6 °F -4.7 °F 5.0 °F 85% 29.89 in 2.5 mi SSW 9.2 mph - N/A Snow Light Snow
8:50 PM 8.6 °F -4.7 °F 5.0 °F 85% 29.90 in 4.0 mi SW 9.2 mph - N/A Snow Light Snow
9:45 PM 8.6 °F -4.7 °F 3.2 °F 79% 29.90 in 10.0 mi SW 9.2 mph - N/A   Scattered Clouds
10:17 PM 7.9 °F -5.5 °F 3.9 °F 84% 29.91 in 10.0 mi SW 9.2 mph - N/A   Scattered Clouds
10:36 PM 7.7 °F -5.8 °F 3.7 °F 84% 29.91 in 10.0 mi WSW 9.2 mph - N/A   Mostly Cloudy
10:56 PM 7.7 °F -5.8 °F 3.6 °F 83% 29.91 in 10.0 mi WSW 9.2 mph - N/A   Overcast
11:17 PM 7.5 °F -5.0 °F 3.0 °F 82% 29.91 in 10.0 mi West 8.1 mph - N/A   Overcast
11:36 PM 7.5 °F -6.0 °F 2.3 °F 79% 29.91 in 10.0 mi West 9.2 mph - N/A   Overcast
11:56 PM 7.5 °F -2.6 °F 1.9 °F 78% 29.90 in 10.0 mi West 5.8 mph - N/A   Scattered Clouds